Location: Borovka
(49.7741°N, 14.5280°E)
Time: 18:58:09
(UTC+00:00)

ITAMSAT 1 - Visible Passes

Search period start: 07 March 2026 00:00
Search period end: 17 March 2026 00:00
Orbit: 781 x 794 km, 98.7° (Epoch: 7 March)

Date Brightness Start Highest point End Pass type
(mag) Time Alt. Az. Time Alt. Az. Time Alt. Az.
7 Mar 9.3 18:28:18 15° ENE 18:28:39 15° NE 18:31:33 10° NNE visible
7 Mar 8.5 20:08:58 44° N 20:08:58 44° N 20:12:28 10° NNW visible
7 Mar 10.4 21:49:37 13° WNW 21:49:37 13° WNW 21:50:35 10° NW visible
8 Mar 8.4 19:38:07 40° NNE 19:38:07 40° NNE 19:41:57 10° N visible
8 Mar 9.8 21:18:47 22° NW 21:18:47 22° NW 21:21:07 10° NW visible
9 Mar 8.7 19:07:17 27° NE 19:07:17 27° NE 19:11:14 10° N visible
9 Mar 9.1 20:47:57 34° NW 20:47:57 34° NW 20:51:08 10° NNW visible
10 Mar 9.2 18:36:27 17° ENE 18:36:55 17° NE 18:40:13 10° NNE visible
10 Mar 8.4 20:17:06 49° NNW 20:17:06 49° NNW 20:20:52 10° NNW visible
10 Mar 10.4 21:57:46 12° WNW 21:57:46 12° WNW 21:58:32 10° NW visible
11 Mar 9.7 18:05:58 10° ENE 18:07:03 11° NE 18:08:09 10° NE visible
11 Mar 8.1 19:46:16 47° NNE 19:46:16 47° NNE 19:50:25 10° N visible
11 Mar 9.8 21:26:55 21° WNW 21:26:55 21° WNW 21:29:20 10° NW visible
12 Mar 8.5 19:15:26 31° ENE 19:15:26 31° ENE 19:19:45 10° N visible
12 Mar 9.1 20:56:06 34° NW 20:56:06 34° NW 20:59:27 10° NNW visible
13 Mar 9.1 18:44:36 19° ENE 18:45:11 20° ENE 18:48:50 10° NNE visible
13 Mar 8.3 20:25:16 53° NNW 20:25:16 53° NNW 20:29:15 10° NNW visible
13 Mar 10.4 22:05:55 11° WNW 22:05:55 11° WNW 22:06:16 10° WNW visible
14 Mar 9.6 18:13:46 11° ENE 18:15:18 12° NE 18:17:18 10° NNE visible
14 Mar 7.9 19:54:26 56° NNE 19:54:26 56° NNE 19:58:50 10° N visible
14 Mar 9.9 21:35:05 19° WNW 21:35:05 19° WNW 21:37:31 10° NW visible
15 Mar 8.3 19:23:36 36° ENE 19:23:36 36° ENE 19:28:14 10° N visible
15 Mar 9.2 21:04:15 32° WNW 21:04:15 32° WNW 21:07:45 10° NNW visible
16 Mar 8.9 18:52:46 22° ENE 18:53:28 22° ENE 18:57:25 10° N visible
16 Mar 8.2 20:33:25 54° NW 20:33:25 54° NW 20:37:37 10° NNW visible
